N174K KGKT-KARR

Flight info

Callsign N174K
Flight time 4h 25m
Altitude 8500
Route VXV IIU OOM JOT
Aircraft C172/L-V/N

Departure

Time 2026-05-08 17:46
Airport Gatlinburg-Pigeon Forge Airport (KGKT)

Arrival

Time 2026-05-08 22:11
Airport Aurora Municipal Airport (KARR)
Time Latitude Longitude Altitude Speed Heading
2026-05-08 16:57 35.85806 -83.52537 1010 ft 0 kts 356°
2026-05-08 17:41 35.85808 -83.52537 1010 ft 0 kts 352°
2026-05-08 17:41 35.85816 -83.52520 1010 ft 4 kts 119°
2026-05-08 17:42 35.85804 -83.52511 1010 ft 5 kts 165°
2026-05-08 17:42 35.85781 -83.52491 1010 ft 6 kts 94°
2026-05-08 17:42 35.85770 -83.52402 1009 ft 15 kts 100°
2026-05-08 17:42 35.85752 -83.52244 1008 ft 19 kts 101°
2026-05-08 17:43 35.85735 -83.52100 1006 ft 15 kts 101°
2026-05-08 17:43 35.85718 -83.52078 1006 ft 0 kts 191°
2026-05-08 17:44 35.85691 -83.52082 1006 ft 7 kts 188°
2026-05-08 17:44 35.85681 -83.52126 1006 ft 9 kts 280°
2026-05-08 17:44 35.85698 -83.52251 1008 ft 20 kts 279°
2026-05-08 17:44 35.85732 -83.52517 1010 ft 50 kts 278°
2026-05-08 17:45 35.85805 -83.53103 1014 ft 85 kts 278°
2026-05-08 17:45 35.85902 -83.53912 1049 ft 104 kts 280°
2026-05-08 17:45 35.85984 -83.54773 1316 ft 95 kts 277°
2026-05-08 17:45 35.86068 -83.55580 1506 ft 97 kts 279°
2026-05-08 17:46 35.86171 -83.56422 1685 ft 100 kts 280°
2026-05-08 17:46 35.86222 -83.57329 1775 ft 109 kts 270°
2026-05-08 17:46 35.85963 -83.58109 2051 ft 99 kts 225°
2026-05-08 17:46 35.85551 -83.58780 2222 ft 97 kts 243°
2026-05-08 17:47 35.85146 -83.59410 2422 ft 96 kts 218°
2026-05-08 17:47 35.84699 -83.60035 2505 ft 102 kts 249°
2026-05-08 17:47 35.84578 -83.60893 2569 ft 109 kts 269°
2026-05-08 17:47 35.84600 -83.61519 2685 ft 103 kts 279°
2026-05-08 17:48 35.84718 -83.62696 2795 ft 111 kts 279°
2026-05-08 17:48 35.84844 -83.63650 2829 ft 118 kts 281°
2026-05-08 17:48 35.84937 -83.64532 3263 ft 88 kts 274°
2026-05-08 17:48 35.84937 -83.65273 3472 ft 82 kts 267°
2026-05-08 17:49 35.84893 -83.65872 3644 ft 68 kts 265°
2026-05-08 17:49 35.84918 -83.66442 3722 ft 69 kts 277°
2026-05-08 17:49 35.85010 -83.67119 3601 ft 96 kts 281°
2026-05-08 17:49 35.85159 -83.68082 3415 ft 121 kts 281°
2026-05-08 17:50 35.85304 -83.69045 3562 ft 114 kts 279°
2026-05-08 17:50 35.85433 -83.70012 3667 ft 111 kts 275°
2026-05-08 17:50 35.85535 -83.70955 3748 ft 114 kts 287°
2026-05-08 17:50 35.85836 -83.71875 3788 ft 117 kts 290°
2026-05-08 17:51 35.86109 -83.72837 3826 ft 119 kts 282°
2026-05-08 17:51 35.86264 -83.73827 3851 ft 120 kts 279°
2026-05-08 17:51 35.86353 -83.74841 3957 ft 119 kts 271°
2026-05-08 17:51 35.86521 -83.75823 4059 ft 121 kts 284°
2026-05-08 17:52 35.86777 -83.76797 4263 ft 116 kts 291°
2026-05-08 17:52 35.87014 -83.77754 4194 ft 127 kts 267°
2026-05-08 17:52 35.87055 -83.79787 4219 ft 123 kts 277°
2026-05-08 17:53 35.87198 -83.80831 4377 ft 118 kts 273°
2026-05-08 17:53 35.87255 -83.81804 4542 ft 117 kts 279°
2026-05-08 17:53 35.87601 -83.82745 4512 ft 126 kts 297°
2026-05-08 17:53 35.88064 -83.83797 4218 ft 137 kts 297°
2026-05-08 17:54 35.88331 -83.84422 5287 ft 57 kts 285°
2026-05-08 17:54 35.88456 -83.85060 5177 ft 92 kts 276°
2026-05-08 17:54 35.88576 -83.85791 5397 ft 83 kts 276°
2026-05-08 17:54 35.88684 -83.86518 5474 ft 91 kts 279°
2026-05-08 17:55 35.88910 -83.87192 5697 ft 83 kts 297°
2026-05-08 17:55 35.89340 -83.87748 5778 ft 93 kts 314°
2026-05-08 17:55 35.89838 -83.88219 5967 ft 87 kts 316°
2026-05-08 17:55 35.90344 -83.88647 6059 ft 92 kts 322°
2026-05-08 17:56 35.90652 -83.89299 6107 ft 95 kts 280°
2026-05-08 17:56 35.91116 -83.89950 6101 ft 114 kts 326°
2026-05-08 17:56 35.91820 -83.90461 6112 ft 120 kts 324°
2026-05-08 17:56 35.92531 -83.90989 6233 ft 113 kts 324°
2026-05-08 17:57 35.93160 -83.91457 6461 ft 100 kts 323°
2026-05-08 17:57 35.93795 -83.91935 6473 ft 117 kts 324°
2026-05-08 17:57 35.94500 -83.92452 6506 ft 119 kts 325°
2026-05-08 17:57 35.95241 -83.93003 6509 ft 130 kts 324°
2026-05-08 17:58 35.96018 -83.93571 6617 ft 125 kts 326°
2026-05-08 17:58 35.96723 -83.94091 6911 ft 110 kts 324°
2026-05-08 17:58 35.97327 -83.94541 7201 ft 91 kts 322°
2026-05-08 17:58 35.97816 -83.94910 7449 ft 78 kts 320°
2026-05-08 17:59 35.98266 -83.95252 7581 ft 81 kts 321°
2026-05-08 17:59 35.98771 -83.95625 7651 ft 87 kts 321°
2026-05-08 17:59 35.99270 -83.95992 7813 ft 72 kts 320°
2026-05-08 17:59 35.99664 -83.96287 7901 ft 65 kts 319°
2026-05-08 18:00 36.00086 -83.96605 7991 ft 77 kts 322°
2026-05-08 18:00 36.01113 -83.97365 8123 ft 97 kts 322°
2026-05-08 18:00 36.01708 -83.97804 8201 ft 102 kts 322°
2026-05-08 18:01 36.02324 -83.98257 8286 ft 102 kts 323°
2026-05-08 18:01 36.02930 -83.98706 8369 ft 103 kts 322°
2026-05-08 18:01 36.03555 -83.99168 8447 ft 104 kts 323°
2026-05-08 18:01 36.04182 -83.99634 8507 ft 108 kts 322°
2026-05-08 18:02 36.04858 -84.00137 8509 ft 118 kts 324°
2026-05-08 18:02 36.05330 -84.00483 8498 ft 117 kts 323°
2026-05-08 18:02 36.06249 -84.01164 8502 ft 117 kts 323°
2026-05-08 18:02 36.06948 -84.01682 8496 ft 118 kts 323°
2026-05-08 18:03 36.07657 -84.02209 8493 ft 120 kts 324°
2026-05-08 18:03 36.08319 -84.02699 8702 ft 102 kts 322°
2026-05-08 18:03 36.08916 -84.03148 8782 ft 104 kts 322°
2026-05-08 18:03 36.09543 -84.03615 8800 ft 107 kts 323°
2026-05-08 18:04 36.10161 -84.04075 8900 ft 100 kts 322°
2026-05-08 18:04 36.10787 -84.04546 8768 ft 116 kts 323°
2026-05-08 18:04 36.11529 -84.05096 8527 ft 131 kts 324°
2026-05-08 18:04 36.12289 -84.05653 8503 ft 123 kts 324°
2026-05-08 18:05 36.13021 -84.06197 8484 ft 121 kts 324°
2026-05-08 18:05 36.13732 -84.06727 8480 ft 118 kts 323°
2026-05-08 18:05 36.14437 -84.07254 8479 ft 119 kts 323°
2026-05-08 18:05 36.15143 -84.07780 8478 ft 118 kts 323°
2026-05-08 18:06 36.15847 -84.08306 8476 ft 120 kts 324°
2026-05-08 18:06 36.16566 -84.08840 8476 ft 122 kts 323°
2026-05-08 18:06 36.17287 -84.09378 8465 ft 123 kts 324°
2026-05-08 18:06 36.18007 -84.09914 8463 ft 119 kts 324°
2026-05-08 18:07 36.18485 -84.10272 8461 ft 119 kts 324°
2026-05-08 18:07 36.19188 -84.10797 8460 ft 118 kts 324°
2026-05-08 18:07 36.19890 -84.11322 8464 ft 119 kts 324°
2026-05-08 18:07 36.20868 -84.12050 8464 ft 125 kts 324°
2026-05-08 18:08 36.21367 -84.12420 8465 ft 123 kts 324°
2026-05-08 18:08 36.22089 -84.12960 8463 ft 120 kts 324°
2026-05-08 18:08 36.22799 -84.13491 8455 ft 118 kts 324°
2026-05-08 18:08 36.23498 -84.14015 8459 ft 117 kts 324°
2026-05-08 18:09 36.24197 -84.14538 8456 ft 118 kts 324°
2026-05-08 18:09 36.24897 -84.15061 8453 ft 117 kts 324°
2026-05-08 18:09 36.25595 -84.15583 8456 ft 118 kts 324°
2026-05-08 18:09 36.26289 -84.16102 8455 ft 116 kts 324°
2026-05-08 18:10 36.26985 -84.16623 8455 ft 117 kts 324°
2026-05-08 18:10 36.27678 -84.17141 8455 ft 116 kts 324°
2026-05-08 18:10 36.28376 -84.17665 8461 ft 119 kts 324°
2026-05-08 18:10 36.29086 -84.18194 8460 ft 118 kts 324°
2026-05-08 18:11 36.29789 -84.18720 8458 ft 118 kts 324°
2026-05-08 18:11 36.30495 -84.19252 8460 ft 119 kts 324°
2026-05-08 18:11 36.31209 -84.19784 8465 ft 122 kts 324°
2026-05-08 18:11 36.31924 -84.20316 8463 ft 120 kts 324°
2026-05-08 18:12 36.32640 -84.20853 8462 ft 118 kts 324°
2026-05-08 18:12 36.33330 -84.21372 8467 ft 118 kts 323°
2026-05-08 18:12 36.34043 -84.21906 8460 ft 120 kts 325°
2026-05-08 18:12 36.34750 -84.22436 8462 ft 118 kts 324°
2026-05-08 18:13 36.35455 -84.22966 8468 ft 119 kts 324°
2026-05-08 18:13 36.36169 -84.23500 8464 ft 119 kts 324°
2026-05-08 18:13 36.36876 -84.24029 8468 ft 118 kts 324°
2026-05-08 18:13 36.37595 -84.24570 8477 ft 123 kts 325°
2026-05-08 18:14 36.38349 -84.25133 8464 ft 128 kts 325°
2026-05-08 18:14 36.39105 -84.25695 8462 ft 124 kts 324°
2026-05-08 18:14 36.39831 -84.26243 8462 ft 122 kts 324°
2026-05-08 18:14 36.40561 -84.26794 8458 ft 122 kts 324°
2026-05-08 18:15 36.41280 -84.27333 8459 ft 119 kts 324°
2026-05-08 18:15 36.41984 -84.27864 8458 ft 118 kts 324°
2026-05-08 18:15 36.42683 -84.28390 8462 ft 116 kts 324°
2026-05-08 18:15 36.43362 -84.28900 8459 ft 113 kts 324°
2026-05-08 18:16 36.44036 -84.29408 8472 ft 115 kts 324°
2026-05-08 18:16 36.44719 -84.29924 8474 ft 116 kts 324°
2026-05-08 18:16 36.45410 -84.30442 8474 ft 116 kts 324°
2026-05-08 18:16 36.46098 -84.30960 8479 ft 116 kts 324°
2026-05-08 18:17 36.46784 -84.31476 8467 ft 114 kts 324°
2026-05-08 18:17 36.47426 -84.31958 8471 ft 107 kts 324°
2026-05-08 18:17 36.48071 -84.32446 8471 ft 109 kts 324°
2026-05-08 18:17 36.48722 -84.32938 8476 ft 113 kts 324°
2026-05-08 18:18 36.49419 -84.33461 8479 ft 119 kts 325°
2026-05-08 18:18 36.50107 -84.33977 8483 ft 115 kts 324°
2026-05-08 18:18 36.50784 -84.34488 8478 ft 113 kts 324°
2026-05-08 18:18 36.51459 -84.34997 8479 ft 113 kts 324°
2026-05-08 18:19 36.52139 -84.35510 8482 ft 115 kts 325°
2026-05-08 18:19 36.52826 -84.36027 8493 ft 117 kts 326°
2026-05-08 18:19 36.53538 -84.36561 8484 ft 119 kts 325°
2026-05-08 18:19 36.54242 -84.37092 8488 ft 118 kts 325°
2026-05-08 18:20 36.54941 -84.37620 8486 ft 118 kts 325°
2026-05-08 18:20 36.55651 -84.38156 8483 ft 120 kts 325°
2026-05-08 18:20 36.56361 -84.38691 8481 ft 119 kts 326°
2026-05-08 18:20 36.57064 -84.39221 8481 ft 118 kts 325°
2026-05-08 18:21 36.57764 -84.39749 8479 ft 118 kts 325°
2026-05-08 18:21 36.58462 -84.40276 8482 ft 117 kts 325°
2026-05-08 18:21 36.59160 -84.40805 8481 ft 118 kts 325°
2026-05-08 18:21 36.59859 -84.41333 8481 ft 117 kts 326°
2026-05-08 18:22 36.60551 -84.41855 8478 ft 116 kts 324°
2026-05-08 18:22 36.61239 -84.42375 8480 ft 116 kts 325°
2026-05-08 18:22 36.61930 -84.42899 8478 ft 116 kts 325°
2026-05-08 18:22 36.62619 -84.43420 8478 ft 116 kts 325°
2026-05-08 18:23 36.63309 -84.43940 8480 ft 115 kts 325°
2026-05-08 18:23 36.63996 -84.44460 8482 ft 115 kts 325°
2026-05-08 18:23 36.64682 -84.44980 8486 ft 116 kts 325°
2026-05-08 18:23 36.65369 -84.45499 8484 ft 116 kts 326°
2026-05-08 18:24 36.66058 -84.46020 8485 ft 116 kts 325°
2026-05-08 18:24 36.66743 -84.46539 8485 ft 115 kts 325°
2026-05-08 18:24 36.67423 -84.47053 8480 ft 115 kts 325°
2026-05-08 18:24 36.68106 -84.47571 8481 ft 114 kts 325°
2026-05-08 18:25 36.68779 -84.48082 8483 ft 114 kts 325°
2026-05-08 18:25 36.69458 -84.48596 8481 ft 114 kts 325°
2026-05-08 18:25 36.70136 -84.49109 8483 ft 114 kts 325°
2026-05-08 18:25 36.70816 -84.49624 8484 ft 114 kts 325°
2026-05-08 18:26 36.71494 -84.50138 8491 ft 114 kts 325°
2026-05-08 18:26 36.72177 -84.50656 8480 ft 114 kts 325°
2026-05-08 18:26 36.72857 -84.51172 8485 ft 114 kts 326°
2026-05-08 18:26 36.73537 -84.51688 8483 ft 114 kts 326°
2026-05-08 18:27 36.74214 -84.52201 8482 ft 114 kts 325°
2026-05-08 18:27 36.74663 -84.52542 8480 ft 114 kts 325°
2026-05-08 18:27 36.75566 -84.53228 8482 ft 113 kts 325°
2026-05-08 18:27 36.76238 -84.53737 8484 ft 113 kts 326°
2026-05-08 18:28 36.76911 -84.54249 8485 ft 114 kts 325°
2026-05-08 18:28 36.77587 -84.54763 8486 ft 114 kts 326°
2026-05-08 18:28 36.78262 -84.55276 8485 ft 113 kts 325°
2026-05-08 18:28 36.78935 -84.55787 8484 ft 113 kts 326°
2026-05-08 18:29 36.79607 -84.56297 8484 ft 113 kts 325°
2026-05-08 18:29 36.80283 -84.56812 8485 ft 115 kts 326°
2026-05-08 18:29 36.80965 -84.57330 8486 ft 114 kts 325°
2026-05-08 18:29 36.81636 -84.57839 8488 ft 114 kts 326°
2026-05-08 18:30 36.82321 -84.58360 8486 ft 113 kts 325°
2026-05-08 18:30 36.82980 -84.58862 8483 ft 112 kts 326°
2026-05-08 18:30 36.83647 -84.59371 8485 ft 113 kts 326°
2026-05-08 18:30 36.84319 -84.59882 8485 ft 114 kts 326°
2026-05-08 18:31 36.84996 -84.60397 8485 ft 114 kts 325°
2026-05-08 18:31 36.85669 -84.60909 8463 ft 113 kts 325°
2026-05-08 18:31 36.86344 -84.61423 8462 ft 113 kts 326°
2026-05-08 18:31 36.87019 -84.61937 8461 ft 114 kts 326°
2026-05-08 18:32 36.87701 -84.62457 8461 ft 115 kts 326°
2026-05-08 18:32 36.88381 -84.62975 8459 ft 114 kts 326°
2026-05-08 18:32 36.89059 -84.63492 8459 ft 114 kts 326°
2026-05-08 18:32 36.89735 -84.64008 8461 ft 114 kts 326°
2026-05-08 18:33 36.90410 -84.64523 8460 ft 114 kts 326°
2026-05-08 18:33 36.91087 -84.65038 8459 ft 114 kts 326°
2026-05-08 18:33 36.91770 -84.65559 8457 ft 114 kts 326°
2026-05-08 18:33 36.92448 -84.66077 8453 ft 114 kts 326°
2026-05-08 18:34 36.93120 -84.66589 8455 ft 113 kts 326°
2026-05-08 18:34 36.93784 -84.67096 8454 ft 112 kts 326°
2026-05-08 18:34 36.94446 -84.67603 8454 ft 112 kts 327°
2026-05-08 18:34 36.95136 -84.68130 8440 ft 121 kts 326°
2026-05-08 18:35 36.95847 -84.68670 8439 ft 121 kts 327°
2026-05-08 18:35 36.96551 -84.69207 8438 ft 117 kts 326°
2026-05-08 18:35 36.97238 -84.69733 8454 ft 116 kts 326°
2026-05-08 18:35 36.97935 -84.70266 8450 ft 118 kts 326°
2026-05-08 18:36 36.98632 -84.70798 8445 ft 117 kts 326°
2026-05-08 18:36 36.99319 -84.71322 8437 ft 115 kts 326°
2026-05-08 18:36 36.99994 -84.71841 8440 ft 114 kts 326°
2026-05-08 18:36 37.00676 -84.72362 8442 ft 117 kts 326°
2026-05-08 18:37 37.01365 -84.72889 8448 ft 117 kts 326°
2026-05-08 18:37 37.02070 -84.73428 8460 ft 120 kts 327°
2026-05-08 18:37 37.02787 -84.73977 8450 ft 122 kts 327°
2026-05-08 18:37 37.03505 -84.74525 8445 ft 119 kts 327°
2026-05-08 18:38 37.04207 -84.75064 8447 ft 118 kts 326°
2026-05-08 18:38 37.04908 -84.75599 8441 ft 117 kts 327°
2026-05-08 18:38 37.05596 -84.76127 8443 ft 114 kts 326°
2026-05-08 18:38 37.06270 -84.76645 8439 ft 114 kts 327°
2026-05-08 18:39 37.06947 -84.77165 8438 ft 115 kts 326°
2026-05-08 18:39 37.07632 -84.77689 8439 ft 115 kts 326°
2026-05-08 18:39 37.08305 -84.78206 8456 ft 116 kts 326°
2026-05-08 18:39 37.09001 -84.78738 8445 ft 119 kts 327°
2026-05-08 18:40 37.09717 -84.79287 8459 ft 120 kts 327°
2026-05-08 18:40 37.10421 -84.79825 8446 ft 116 kts 326°
2026-05-08 18:40 37.11098 -84.80347 8461 ft 118 kts 326°
2026-05-08 18:40 37.11808 -84.80890 8445 ft 120 kts 326°
2026-05-08 18:41 37.12507 -84.81428 8445 ft 116 kts 326°
2026-05-08 18:41 37.13201 -84.81961 8438 ft 118 kts 326°
2026-05-08 18:41 37.13889 -84.82491 8441 ft 115 kts 326°
2026-05-08 18:41 37.14561 -84.83008 8441 ft 112 kts 326°
2026-05-08 18:42 37.15222 -84.83517 8441 ft 111 kts 326°
2026-05-08 18:42 37.15879 -84.84022 8445 ft 110 kts 326°
2026-05-08 18:42 37.16536 -84.84528 8446 ft 112 kts 326°
2026-05-08 18:42 37.17196 -84.85036 8457 ft 111 kts 328°
2026-05-08 18:43 37.17861 -84.85546 8448 ft 110 kts 327°
2026-05-08 18:43 37.18514 -84.86048 8450 ft 110 kts 326°
2026-05-08 18:43 37.19170 -84.86554 8449 ft 111 kts 326°
2026-05-08 18:43 37.19832 -84.87066 8463 ft 113 kts 323°
2026-05-08 18:44 37.20499 -84.87579 8447 ft 111 kts 326°
2026-05-08 18:44 37.21153 -84.88080 8453 ft 110 kts 326°
2026-05-08 18:44 37.21811 -84.88586 8461 ft 111 kts 326°
2026-05-08 18:44 37.22465 -84.89091 8460 ft 110 kts 326°
2026-05-08 18:45 37.23121 -84.89597 8456 ft 112 kts 326°
2026-05-08 18:45 37.23783 -84.90106 8462 ft 111 kts 326°
2026-05-08 18:45 37.24454 -84.90622 8466 ft 114 kts 326°
2026-05-08 18:45 37.25130 -84.91144 8452 ft 113 kts 326°
2026-05-08 18:46 37.25798 -84.91659 8470 ft 113 kts 326°
2026-05-08 18:46 37.26481 -84.92184 8459 ft 115 kts 326°
2026-05-08 18:46 37.27154 -84.92703 8465 ft 113 kts 326°
2026-05-08 18:46 37.27838 -84.93227 8472 ft 118 kts 326°
2026-05-08 18:47 37.28547 -84.93775 8453 ft 119 kts 326°
2026-05-08 18:47 37.29244 -84.94313 8465 ft 117 kts 326°
2026-05-08 18:47 37.29935 -84.94848 8461 ft 116 kts 327°
2026-05-08 18:47 37.30633 -84.95388 8467 ft 118 kts 327°
2026-05-08 18:48 37.31321 -84.95918 8453 ft 114 kts 326°
2026-05-08 18:48 37.32002 -84.96445 8465 ft 116 kts 326°
2026-05-08 18:48 37.32690 -84.96977 8452 ft 113 kts 326°
2026-05-08 18:48 37.33351 -84.97489 8455 ft 111 kts 326°
2026-05-08 18:49 37.34010 -84.98000 8451 ft 113 kts 326°
2026-05-08 18:49 37.34686 -84.98523 8455 ft 114 kts 326°
2026-05-08 18:49 37.35357 -84.99039 8460 ft 115 kts 327°
2026-05-08 18:49 37.36034 -84.99563 8467 ft 115 kts 326°
2026-05-08 18:50 37.36736 -85.00106 8460 ft 118 kts 326°
2026-05-08 18:50 37.37424 -85.00637 8455 ft 114 kts 326°
2026-05-08 18:50 37.38099 -85.01161 8454 ft 113 kts 326°
2026-05-08 18:50 37.38388 -85.01385 8455 ft 113 kts 326°
2026-05-08 18:51 37.39180 -85.02000 8454 ft 112 kts 326°
2026-05-08 18:51 37.39840 -85.02511 8457 ft 111 kts 326°
2026-05-08 18:51 37.40500 -85.03022 8453 ft 111 kts 326°
2026-05-08 18:51 37.41159 -85.03533 8454 ft 112 kts 326°
2026-05-08 18:52 37.41822 -85.04047 8456 ft 112 kts 326°
2026-05-08 18:52 37.42486 -85.04562 8455 ft 112 kts 326°
2026-05-08 18:52 37.43149 -85.05075 8459 ft 112 kts 326°
2026-05-08 18:52 37.43584 -85.05413 8454 ft 110 kts 326°
2026-05-08 18:53 37.44235 -85.05920 8468 ft 112 kts 326°
2026-05-08 18:53 37.44912 -85.06443 8469 ft 114 kts 326°
2026-05-08 18:53 37.45581 -85.06960 8459 ft 112 kts 326°
2026-05-08 18:53 37.46239 -85.07472 8459 ft 110 kts 326°
2026-05-08 18:54 37.46894 -85.07981 8455 ft 110 kts 326°
2026-05-08 18:54 37.47546 -85.08487 8454 ft 110 kts 326°
2026-05-08 18:54 37.48196 -85.08992 8452 ft 109 kts 326°
2026-05-08 18:54 37.48836 -85.09491 8447 ft 108 kts 326°
2026-05-08 18:55 37.50106 -85.10478 8454 ft 108 kts 326°
2026-05-08 18:55 37.50752 -85.10980 8460 ft 109 kts 326°
2026-05-08 18:55 37.51398 -85.11481 8456 ft 109 kts 326°
2026-05-08 18:56 37.52066 -85.11999 8462 ft 118 kts 326°
2026-05-08 18:56 37.52759 -85.12536 8452 ft 114 kts 326°
2026-05-08 18:56 37.53422 -85.13053 8452 ft 111 kts 326°
2026-05-08 18:56 37.54080 -85.13566 8451 ft 111 kts 326°
2026-05-08 18:57 37.54734 -85.14075 8445 ft 110 kts 325°
2026-05-08 18:57 37.55386 -85.14583 8448 ft 111 kts 326°
2026-05-08 18:57 37.56043 -85.15093 8451 ft 112 kts 326°
2026-05-08 18:57 37.56698 -85.15604 8446 ft 112 kts 325°
2026-05-08 18:58 37.57368 -85.16124 8445 ft 113 kts 325°
2026-05-08 18:58 37.58032 -85.16643 8444 ft 112 kts 325°
2026-05-08 18:58 37.58689 -85.17154 8441 ft 110 kts 325°
2026-05-08 18:58 37.59339 -85.17661 8441 ft 110 kts 326°
2026-05-08 18:59 37.59987 -85.18165 8440 ft 109 kts 325°
2026-05-08 18:59 37.60636 -85.18675 8438 ft 112 kts 325°
2026-05-08 18:59 37.61297 -85.19187 8444 ft 112 kts 326°
2026-05-08 18:59 37.61953 -85.19699 8460 ft 111 kts 325°
2026-05-08 19:00 37.62620 -85.20219 8444 ft 112 kts 325°
2026-05-08 19:00 37.63283 -85.20737 8442 ft 112 kts 325°
2026-05-08 19:00 37.63945 -85.21253 8428 ft 112 kts 325°
2026-05-08 19:00 37.64605 -85.21769 8416 ft 111 kts 325°
2026-05-08 19:01 37.65267 -85.22286 8423 ft 114 kts 325°
2026-05-08 19:01 37.65888 -85.22894 8388 ft 113 kts 308°
2026-05-08 19:01 37.66492 -85.23475 8368 ft 104 kts 313°
2026-05-08 19:01 37.67072 -85.23984 8379 ft 100 kts 315°
2026-05-08 19:02 37.67640 -85.24471 8382 ft 98 kts 314°
2026-05-08 19:02 37.68241 -85.24853 8394 ft 95 kts 319°
2026-05-08 19:02 37.68807 -85.25289 8401 ft 97 kts 330°
2026-05-08 19:02 37.69444 -85.25683 8407 ft 106 kts 329°
2026-05-08 19:03 37.70117 -85.26139 8412 ft 115 kts 327°
2026-05-08 19:03 37.70818 -85.26649 8410 ft 118 kts 325°
2026-05-08 19:03 37.71529 -85.27189 8409 ft 120 kts 325°
2026-05-08 19:03 37.72242 -85.27737 8395 ft 119 kts 326°
2026-05-08 19:04 37.72932 -85.28275 8392 ft 115 kts 325°
2026-05-08 19:04 37.73624 -85.28818 8390 ft 119 kts 325°
2026-05-08 19:04 37.74316 -85.29359 8396 ft 115 kts 325°
2026-05-08 19:04 37.74993 -85.29889 8391 ft 113 kts 324°
2026-05-08 19:05 37.75662 -85.30416 8395 ft 113 kts 324°
2026-05-08 19:05 37.76333 -85.30941 8394 ft 115 kts 324°
2026-05-08 19:05 37.77015 -85.31474 8394 ft 118 kts 325°
2026-05-08 19:05 37.77714 -85.32019 8386 ft 117 kts 325°
2026-05-08 19:06 37.78395 -85.32556 8382 ft 115 kts 324°
2026-05-08 19:06 37.79074 -85.33089 8388 ft 115 kts 325°
2026-05-08 19:06 37.79747 -85.33616 8379 ft 112 kts 324°
2026-05-08 19:06 37.80419 -85.34145 8380 ft 115 kts 324°
2026-05-08 19:07 37.81105 -85.34682 8378 ft 115 kts 325°
2026-05-08 19:07 37.81777 -85.35209 8374 ft 114 kts 324°
2026-05-08 19:07 37.82443 -85.35733 8383 ft 113 kts 324°
2026-05-08 19:07 37.83118 -85.36264 8385 ft 114 kts 324°
2026-05-08 19:08 37.83798 -85.36796 8386 ft 115 kts 324°
2026-05-08 19:08 37.84474 -85.37327 8380 ft 113 kts 324°
2026-05-08 19:08 37.85147 -85.37858 8377 ft 114 kts 324°
2026-05-08 19:08 37.85818 -85.38385 8378 ft 113 kts 324°
2026-05-08 19:09 37.86480 -85.38906 8376 ft 113 kts 323°
2026-05-08 19:09 37.87150 -85.39433 8383 ft 114 kts 324°
2026-05-08 19:09 37.87827 -85.39965 8387 ft 116 kts 323°
2026-05-08 19:09 37.88513 -85.40504 8391 ft 117 kts 323°
2026-05-08 19:10 37.89203 -85.41046 8382 ft 115 kts 324°
2026-05-08 19:10 37.89875 -85.41574 8376 ft 112 kts 323°
2026-05-08 19:10 37.90531 -85.42093 8382 ft 111 kts 323°
2026-05-08 19:10 37.91194 -85.42616 8384 ft 116 kts 324°
2026-05-08 19:11 37.91872 -85.43147 8383 ft 113 kts 323°
2026-05-08 19:11 37.92544 -85.43677 8384 ft 115 kts 324°
2026-05-08 19:11 37.93225 -85.44214 8378 ft 114 kts 323°
2026-05-08 19:11 37.93904 -85.44749 8380 ft 114 kts 323°
2026-05-08 19:12 37.94573 -85.45276 8384 ft 113 kts 323°
2026-05-08 19:12 37.95247 -85.45808 8380 ft 113 kts 323°
2026-05-08 19:12 37.95891 -85.46317 8381 ft 114 kts 323°
2026-05-08 19:12 37.96561 -85.46845 8382 ft 113 kts 323°
2026-05-08 19:13 37.97226 -85.47369 8388 ft 113 kts 323°
2026-05-08 19:13 37.97900 -85.47900 8388 ft 114 kts 323°
2026-05-08 19:13 37.98577 -85.48435 8384 ft 115 kts 323°
2026-05-08 19:13 37.99249 -85.48965 8384 ft 113 kts 322°
2026-05-08 19:14 37.99913 -85.49490 8396 ft 113 kts 323°
2026-05-08 19:14 38.00601 -85.50032 8397 ft 119 kts 322°
2026-05-08 19:14 38.01312 -85.50596 8395 ft 121 kts 323°
2026-05-08 19:14 38.02019 -85.51150 8386 ft 118 kts 323°
2026-05-08 19:15 38.02704 -85.51692 8400 ft 117 kts 322°
2026-05-08 19:15 38.03387 -85.52232 8390 ft 115 kts 323°
2026-05-08 19:15 38.04062 -85.52767 8391 ft 115 kts 322°
2026-05-08 19:15 38.04741 -85.53305 8390 ft 115 kts 322°
2026-05-08 19:16 38.05420 -85.53841 8389 ft 115 kts 322°
2026-05-08 19:16 38.06100 -85.54379 8387 ft 115 kts 322°
2026-05-08 19:16 38.06778 -85.54916 8391 ft 115 kts 322°
2026-05-08 19:16 38.07450 -85.55448 8389 ft 115 kts 322°
2026-05-08 19:17 38.08134 -85.55990 8391 ft 116 kts 322°
2026-05-08 19:17 38.08818 -85.56531 8394 ft 116 kts 322°
2026-05-08 19:17 38.09510 -85.57079 8390 ft 118 kts 322°
2026-05-08 19:17 38.10200 -85.57625 8386 ft 117 kts 322°
2026-05-08 19:18 38.10848 -85.58228 8386 ft 116 kts 316°
2026-05-08 19:18 38.11480 -85.58848 8380 ft 113 kts 317°
2026-05-08 19:18 38.12103 -85.59458 8384 ft 115 kts 317°
2026-05-08 19:18 38.12731 -85.60072 8376 ft 113 kts 317°
2026-05-08 19:19 38.13349 -85.60676 8375 ft 112 kts 317°
2026-05-08 19:19 38.13970 -85.61284 8374 ft 113 kts 316°
2026-05-08 19:19 38.14592 -85.61892 8376 ft 113 kts 317°
2026-05-08 19:19 38.15213 -85.62500 8371 ft 113 kts 317°
2026-05-08 19:20 38.15831 -85.63104 8379 ft 112 kts 317°
2026-05-08 19:20 38.16040 -85.63309 8372 ft 112 kts 317°
2026-05-08 19:20 38.17065 -85.64314 8373 ft 112 kts 317°
2026-05-08 19:20 38.17680 -85.64916 8373 ft 111 kts 316°
2026-05-08 19:21 38.18294 -85.65518 8376 ft 112 kts 316°
2026-05-08 19:21 38.18909 -85.66120 8377 ft 112 kts 316°
2026-05-08 19:21 38.19528 -85.66726 8378 ft 112 kts 316°
2026-05-08 19:21 38.20149 -85.67335 8379 ft 113 kts 316°
2026-05-08 19:22 38.20772 -85.67946 8378 ft 113 kts 316°
2026-05-08 19:22 38.21393 -85.68553 8380 ft 112 kts 316°
2026-05-08 19:22 38.22005 -85.69155 8373 ft 110 kts 316°
2026-05-08 19:22 38.22613 -85.69753 8382 ft 112 kts 316°
2026-05-08 19:23 38.23234 -85.70361 8384 ft 113 kts 316°
2026-05-08 19:23 38.23860 -85.70974 8385 ft 113 kts 316°
2026-05-08 19:23 38.24477 -85.71581 8379 ft 112 kts 316°
2026-05-08 19:23 38.25089 -85.72183 8384 ft 112 kts 316°
2026-05-08 19:24 38.25711 -85.72793 8384 ft 113 kts 316°
2026-05-08 19:24 38.26327 -85.73398 8382 ft 113 kts 316°
2026-05-08 19:24 38.26948 -85.74008 8383 ft 112 kts 316°
2026-05-08 19:24 38.27566 -85.74615 8383 ft 112 kts 316°
2026-05-08 19:25 38.28189 -85.75227 8363 ft 111 kts 316°
2026-05-08 19:25 38.28798 -85.75826 8364 ft 111 kts 316°
2026-05-08 19:25 38.29399 -85.76418 8362 ft 111 kts 315°
2026-05-08 19:25 38.30013 -85.77022 8366 ft 112 kts 316°
2026-05-08 19:26 38.30631 -85.77630 8365 ft 112 kts 316°
2026-05-08 19:26 38.31251 -85.78241 8366 ft 113 kts 316°
2026-05-08 19:26 38.31872 -85.78851 8366 ft 113 kts 316°
2026-05-08 19:26 38.32485 -85.79453 8357 ft 110 kts 315°
2026-05-08 19:27 38.33089 -85.80049 8362 ft 110 kts 315°
2026-05-08 19:27 38.33699 -85.80650 8358 ft 110 kts 315°
2026-05-08 19:27 38.34305 -85.81247 8362 ft 110 kts 315°
2026-05-08 19:27 38.34914 -85.81848 8360 ft 111 kts 314°
2026-05-08 19:28 38.35519 -85.82444 8363 ft 110 kts 314°
2026-05-08 19:28 38.36122 -85.83040 8359 ft 110 kts 314°
2026-05-08 19:28 38.36724 -85.83633 8367 ft 109 kts 314°
2026-05-08 19:28 38.37330 -85.84229 8371 ft 111 kts 315°
2026-05-08 19:29 38.37943 -85.84835 8365 ft 114 kts 315°
2026-05-08 19:29 38.38568 -85.85451 8367 ft 113 kts 314°
2026-05-08 19:29 38.39188 -85.86062 8368 ft 112 kts 315°
2026-05-08 19:29 38.39810 -85.86678 8368 ft 115 kts 315°
2026-05-08 19:30 38.40438 -85.87296 8370 ft 114 kts 315°
2026-05-08 19:30 38.41062 -85.87912 8372 ft 116 kts 314°
2026-05-08 19:30 38.41702 -85.88543 8375 ft 117 kts 315°
2026-05-08 19:30 38.42344 -85.89174 8360 ft 115 kts 315°
2026-05-08 19:31 38.42962 -85.89786 8356 ft 110 kts 314°
2026-05-08 19:31 38.43566 -85.90385 8354 ft 110 kts 314°
2026-05-08 19:31 38.44162 -85.90975 8356 ft 108 kts 314°
2026-05-08 19:31 38.44738 -85.91545 8361 ft 104 kts 314°
2026-05-08 19:32 38.45314 -85.92119 8360 ft 105 kts 314°
2026-05-08 19:32 38.45899 -85.92699 8363 ft 109 kts 313°
2026-05-08 19:32 38.46511 -85.93303 8379 ft 113 kts 315°
2026-05-08 19:32 38.47135 -85.93916 8366 ft 112 kts 315°
2026-05-08 19:33 38.47746 -85.94520 8370 ft 110 kts 314°
2026-05-08 19:33 38.48348 -85.95119 8368 ft 110 kts 314°
2026-05-08 19:33 38.48955 -85.95721 8369 ft 111 kts 314°
2026-05-08 19:33 38.49561 -85.96320 8365 ft 109 kts 314°
2026-05-08 19:34 38.50157 -85.96911 8364 ft 108 kts 314°
2026-05-08 19:34 38.50751 -85.97500 8367 ft 108 kts 313°
2026-05-08 19:34 38.51354 -85.98100 8370 ft 112 kts 313°
2026-05-08 19:34 38.51968 -85.98706 8366 ft 111 kts 314°
2026-05-08 19:35 38.52575 -85.99308 8367 ft 111 kts 314°
2026-05-08 19:35 38.53188 -85.99917 8372 ft 113 kts 313°
2026-05-08 19:35 38.53810 -86.00532 8362 ft 112 kts 314°
2026-05-08 19:35 38.54431 -86.01149 8363 ft 114 kts 314°
2026-05-08 19:36 38.55050 -86.01762 8359 ft 111 kts 314°
2026-05-08 19:36 38.55657 -86.02365 8362 ft 111 kts 313°
2026-05-08 19:36 38.56261 -86.02965 8364 ft 109 kts 313°
2026-05-08 19:36 38.56862 -86.03563 8357 ft 110 kts 313°
2026-05-08 19:37 38.57464 -86.04162 8358 ft 110 kts 313°
2026-05-08 19:37 38.58069 -86.04762 8363 ft 110 kts 313°
2026-05-08 19:37 38.58677 -86.05367 8359 ft 111 kts 313°
2026-05-08 19:37 38.59285 -86.05971 8364 ft 111 kts 313°
2026-05-08 19:38 38.59894 -86.06577 8364 ft 112 kts 313°
2026-05-08 19:38 38.60509 -86.07188 8364 ft 112 kts 313°
2026-05-08 19:38 38.60976 -86.07967 8141 ft 119 kts 309°
2026-05-08 19:38 38.61416 -86.08357 8237 ft 114 kts 319°
2026-05-08 19:39 38.62254 -86.09047 8359 ft 106 kts 316°
2026-05-08 19:39 38.62865 -86.09593 8347 ft 108 kts 314°
2026-05-08 19:39 38.63471 -86.10167 8357 ft 109 kts 313°
2026-05-08 19:39 38.64081 -86.10759 8356 ft 111 kts 313°
2026-05-08 19:40 38.64694 -86.11361 8357 ft 111 kts 313°
2026-05-08 19:40 38.65109 -86.11772 8361 ft 111 kts 313°
2026-05-08 19:40 38.65723 -86.12381 8364 ft 112 kts 312°
2026-05-08 19:40 38.66342 -86.12997 8360 ft 113 kts 312°
2026-05-08 19:41 38.66960 -86.13610 8362 ft 112 kts 312°
2026-05-08 19:41 38.67569 -86.14218 8364 ft 111 kts 311°
2026-05-08 19:41 38.68176 -86.14823 8360 ft 110 kts 312°
2026-05-08 19:41 38.68768 -86.15414 8358 ft 109 kts 312°
2026-05-08 19:42 38.69374 -86.16020 8361 ft 110 kts 312°
2026-05-08 19:42 38.69981 -86.16626 8365 ft 111 kts 312°
2026-05-08 19:42 38.70592 -86.17235 8365 ft 111 kts 312°
2026-05-08 19:42 38.71205 -86.17847 8367 ft 112 kts 312°
2026-05-08 19:43 38.71808 -86.18448 8364 ft 111 kts 311°
2026-05-08 19:43 38.72422 -86.19061 8360 ft 112 kts 311°
2026-05-08 19:43 38.73036 -86.19675 8359 ft 112 kts 311°
2026-05-08 19:43 38.73649 -86.20287 8363 ft 112 kts 311°
2026-05-08 19:44 38.74265 -86.20902 8361 ft 112 kts 311°
2026-05-08 19:44 38.74874 -86.21511 8361 ft 110 kts 311°
2026-05-08 19:44 38.75474 -86.22110 8358 ft 109 kts 311°
2026-05-08 19:44 38.76070 -86.22708 8359 ft 109 kts 311°
2026-05-08 19:45 38.76670 -86.23309 8358 ft 110 kts 311°
2026-05-08 19:45 38.77274 -86.23914 8361 ft 110 kts 311°
2026-05-08 19:45 38.77882 -86.24522 8364 ft 111 kts 311°
2026-05-08 19:45 38.78494 -86.25135 8369 ft 112 kts 311°
2026-05-08 19:46 38.79110 -86.25750 8360 ft 112 kts 311°
2026-05-08 19:46 38.79719 -86.26360 8363 ft 111 kts 311°
2026-05-08 19:46 38.80931 -86.27574 8351 ft 110 kts 311°
2026-05-08 19:47 38.81536 -86.28180 8350 ft 110 kts 311°
2026-05-08 19:47 38.82141 -86.28787 8348 ft 111 kts 311°
2026-05-08 19:47 38.82747 -86.29396 8348 ft 111 kts 311°
2026-05-08 19:47 38.83358 -86.30008 8350 ft 112 kts 311°
2026-05-08 19:48 38.83969 -86.30620 8347 ft 110 kts 311°
2026-05-08 19:48 38.84566 -86.31218 8345 ft 108 kts 310°
2026-05-08 19:48 38.85154 -86.31810 8344 ft 108 kts 310°
2026-05-08 19:48 38.85747 -86.32406 8348 ft 109 kts 310°
2026-05-08 19:49 38.86353 -86.33015 8351 ft 111 kts 311°
2026-05-08 19:49 38.86959 -86.33623 8351 ft 110 kts 310°
2026-05-08 19:49 38.87559 -86.34224 8349 ft 109 kts 310°
2026-05-08 19:49 38.88156 -86.34825 8349 ft 109 kts 310°
2026-05-08 19:50 38.88753 -86.35424 8351 ft 109 kts 310°
2026-05-08 19:50 38.89353 -86.36028 8352 ft 110 kts 310°
2026-05-08 19:50 38.89947 -86.36624 8351 ft 109 kts 310°
2026-05-08 19:50 38.90549 -86.37230 8352 ft 110 kts 310°
2026-05-08 19:51 38.91155 -86.37840 8352 ft 111 kts 310°
2026-05-08 19:51 38.91766 -86.38453 8346 ft 111 kts 310°
2026-05-08 19:51 38.92370 -86.39061 8348 ft 110 kts 310°
2026-05-08 19:51 38.92969 -86.39663 8346 ft 109 kts 310°
2026-05-08 19:52 38.93566 -86.40265 8347 ft 109 kts 310°
2026-05-08 19:52 38.94161 -86.40864 8346 ft 108 kts 310°
2026-05-08 19:52 38.94752 -86.41457 8340 ft 107 kts 310°
2026-05-08 19:52 38.95334 -86.42046 8344 ft 107 kts 309°
2026-05-08 19:53 38.95918 -86.42636 8344 ft 107 kts 310°
2026-05-08 19:53 38.96505 -86.43227 8346 ft 108 kts 309°
2026-05-08 19:53 38.97101 -86.43828 8351 ft 109 kts 310°
2026-05-08 19:53 38.97695 -86.44426 8347 ft 108 kts 310°
2026-05-08 19:54 38.98285 -86.45020 8348 ft 108 kts 309°
2026-05-08 19:54 38.98876 -86.45617 8349 ft 108 kts 309°
2026-05-08 19:54 38.99465 -86.46212 8345 ft 108 kts 310°
2026-05-08 19:54 39.00053 -86.46804 8344 ft 107 kts 310°
2026-05-08 19:55 39.00638 -86.47395 8344 ft 107 kts 309°
2026-05-08 19:55 39.01226 -86.47989 8357 ft 108 kts 310°
2026-05-08 19:55 39.01819 -86.48587 8353 ft 109 kts 310°
2026-05-08 19:55 39.02414 -86.49187 8356 ft 108 kts 310°
2026-05-08 19:56 39.03007 -86.49786 8355 ft 109 kts 309°
2026-05-08 19:56 39.03604 -86.50389 8353 ft 108 kts 310°
2026-05-08 19:56 39.04187 -86.50980 8352 ft 108 kts 310°
2026-05-08 19:56 39.04779 -86.51578 8355 ft 109 kts 310°
2026-05-08 19:57 39.05372 -86.52177 8352 ft 107 kts 310°
2026-05-08 19:57 39.05952 -86.52763 8349 ft 105 kts 310°
2026-05-08 19:57 39.06520 -86.53338 8352 ft 104 kts 309°
2026-05-08 19:57 39.07089 -86.53916 8353 ft 106 kts 309°
2026-05-08 19:58 39.07671 -86.54504 8363 ft 107 kts 309°
2026-05-08 19:58 39.08262 -86.55103 8358 ft 109 kts 309°
2026-05-08 19:58 39.08866 -86.55712 8356 ft 111 kts 309°
2026-05-08 19:58 39.09468 -86.56321 8361 ft 110 kts 309°
2026-05-08 19:59 39.10068 -86.56927 8360 ft 109 kts 309°
2026-05-08 19:59 39.10664 -86.57531 8358 ft 109 kts 309°
2026-05-08 19:59 39.11261 -86.58137 8358 ft 110 kts 309°
2026-05-08 19:59 39.11861 -86.58743 8355 ft 109 kts 309°
2026-05-08 20:00 39.12451 -86.59341 8350 ft 108 kts 309°
2026-05-08 20:00 39.13033 -86.59932 8350 ft 106 kts 309°
2026-05-08 20:00 39.13610 -86.60518 8350 ft 105 kts 309°
2026-05-08 20:00 39.14173 -86.61114 8346 ft 101 kts 300°
2026-05-08 20:01 39.14409 -86.61910 8346 ft 95 kts 280°
2026-05-08 20:01 39.14585 -86.62731 8346 ft 95 kts 280°
2026-05-08 20:01 39.14759 -86.63550 8321 ft 94 kts 280°
2026-05-08 20:01 39.14934 -86.64366 8321 ft 94 kts 280°
2026-05-08 20:02 39.15108 -86.65170 8319 ft 94 kts 281°
2026-05-08 20:02 39.15281 -86.65987 8322 ft 93 kts 280°
2026-05-08 20:02 39.15452 -86.66777 8323 ft 93 kts 280°
2026-05-08 20:02 39.15629 -86.67580 8322 ft 93 kts 280°
2026-05-08 20:03 39.15808 -86.68383 8326 ft 94 kts 280°
2026-05-08 20:03 39.15991 -86.69197 8324 ft 95 kts 280°
2026-05-08 20:03 39.16174 -86.70014 8327 ft 95 kts 280°
2026-05-08 20:03 39.16358 -86.70827 8320 ft 94 kts 280°
2026-05-08 20:04 39.16545 -86.71642 8321 ft 96 kts 280°
2026-05-08 20:04 39.16734 -86.72462 8325 ft 95 kts 280°
2026-05-08 20:04 39.16925 -86.73282 8323 ft 95 kts 280°
2026-05-08 20:04 39.17116 -86.74098 8330 ft 95 kts 280°
2026-05-08 20:05 39.17309 -86.74922 8328 ft 96 kts 280°
2026-05-08 20:05 39.17499 -86.75749 8326 ft 96 kts 280°
2026-05-08 20:05 39.17689 -86.76574 8330 ft 96 kts 280°
2026-05-08 20:05 39.17879 -86.77395 8327 ft 95 kts 280°
2026-05-08 20:06 39.18067 -86.78213 8324 ft 95 kts 280°
2026-05-08 20:06 39.18256 -86.79024 8329 ft 94 kts 280°
2026-05-08 20:06 39.18443 -86.79835 8325 ft 94 kts 281°
2026-05-08 20:06 39.18631 -86.80645 8326 ft 94 kts 280°
2026-05-08 20:07 39.18820 -86.81459 8327 ft 95 kts 280°
2026-05-08 20:07 39.19009 -86.82275 8328 ft 95 kts 281°
2026-05-08 20:07 39.19199 -86.83099 8327 ft 96 kts 280°
2026-05-08 20:07 39.19388 -86.83923 8329 ft 96 kts 281°
2026-05-08 20:08 39.19577 -86.84751 8326 ft 96 kts 281°
2026-05-08 20:08 39.19766 -86.85580 8330 ft 97 kts 281°
2026-05-08 20:08 39.19955 -86.86414 8329 ft 97 kts 281°
2026-05-08 20:08 39.20144 -86.87247 8327 ft 97 kts 280°
2026-05-08 20:09 39.20330 -86.88080 8328 ft 97 kts 280°
2026-05-08 20:09 39.20519 -86.88910 8326 ft 96 kts 281°
2026-05-08 20:09 39.20706 -86.89736 8324 ft 96 kts 281°
2026-05-08 20:09 39.20886 -86.90545 8326 ft 94 kts 280°
2026-05-08 20:10 39.21066 -86.91358 8320 ft 94 kts 281°
2026-05-08 20:10 39.21246 -86.92161 8317 ft 93 kts 280°
2026-05-08 20:10 39.21421 -86.92955 8317 ft 91 kts 280°
2026-05-08 20:10 39.21599 -86.93742 8317 ft 93 kts 281°
2026-05-08 20:11 39.21785 -86.94543 8317 ft 94 kts 281°
2026-05-08 20:11 39.21971 -86.95346 8319 ft 93 kts 280°
2026-05-08 20:11 39.22159 -86.96150 8322 ft 94 kts 281°
2026-05-08 20:11 39.22348 -86.96954 8316 ft 94 kts 281°
2026-05-08 20:12 39.22537 -86.97755 8320 ft 93 kts 280°
2026-05-08 20:12 39.22727 -86.98555 8319 ft 93 kts 281°
2026-05-08 20:12 39.22917 -86.99360 8319 ft 94 kts 281°
2026-05-08 20:12 39.23108 -87.00166 8322 ft 94 kts 281°
2026-05-08 20:13 39.23302 -87.00975 8321 ft 95 kts 281°
2026-05-08 20:13 39.23495 -87.01783 8318 ft 93 kts 280°
2026-05-08 20:13 39.23686 -87.02574 8317 ft 92 kts 280°
2026-05-08 20:13 39.23877 -87.03358 8320 ft 92 kts 281°
2026-05-08 20:14 39.24070 -87.04142 8316 ft 92 kts 281°
2026-05-08 20:14 39.24262 -87.04922 8315 ft 91 kts 281°
2026-05-08 20:14 39.24450 -87.05690 8315 ft 90 kts 281°
2026-05-08 20:14 39.24643 -87.06477 8314 ft 91 kts 281°
2026-05-08 20:15 39.24832 -87.07248 8313 ft 91 kts 281°
2026-05-08 20:15 39.25023 -87.08025 8315 ft 91 kts 281°
2026-05-08 20:15 39.25215 -87.08804 8315 ft 91 kts 281°
2026-05-08 20:15 39.25407 -87.09585 8316 ft 92 kts 281°
2026-05-08 20:16 39.25600 -87.10369 8320 ft 92 kts 281°
2026-05-08 20:16 39.25793 -87.11154 8319 ft 92 kts 281°
2026-05-08 20:16 39.25988 -87.11946 8321 ft 93 kts 281°
2026-05-08 20:16 39.26185 -87.12744 8319 ft 94 kts 281°
2026-05-08 20:17 39.26384 -87.13545 8323 ft 94 kts 280°
2026-05-08 20:17 39.26585 -87.14351 8322 ft 94 kts 281°
2026-05-08 20:17 39.26786 -87.15157 8324 ft 94 kts 281°
2026-05-08 20:17 39.26970 -87.15962 8319 ft 91 kts 271°
2026-05-08 20:18 39.26815 -87.16739 8320 ft 90 kts 253°
2026-05-08 20:18 39.26610 -87.17499 8316 ft 90 kts 253°
2026-05-08 20:18 39.26408 -87.18266 8318 ft 90 kts 253°
2026-05-08 20:18 39.26207 -87.19036 8318 ft 91 kts 253°
2026-05-08 20:19 39.26006 -87.19806 8316 ft 90 kts 253°
2026-05-08 20:19 39.25810 -87.20573 8321 ft 90 kts 253°
2026-05-08 20:19 39.25614 -87.21337 8315 ft 89 kts 253°
2026-05-08 20:19 39.25416 -87.22094 8315 ft 89 kts 254°
2026-05-08 20:20 39.25216 -87.22848 8319 ft 89 kts 253°
2026-05-08 20:20 39.25013 -87.23606 8319 ft 90 kts 253°
2026-05-08 20:20 39.24809 -87.24373 8319 ft 90 kts 253°
2026-05-08 20:20 39.24605 -87.25142 8317 ft 90 kts 254°
2026-05-08 20:21 39.24402 -87.25909 8316 ft 91 kts 253°
2026-05-08 20:21 39.24199 -87.26678 8322 ft 91 kts 253°
2026-05-08 20:21 39.24001 -87.27454 8322 ft 91 kts 254°
2026-05-08 20:21 39.23803 -87.28231 8322 ft 91 kts 254°
2026-05-08 20:22 39.23606 -87.29009 8321 ft 92 kts 254°
2026-05-08 20:22 39.23409 -87.29790 8325 ft 92 kts 254°
2026-05-08 20:22 39.23209 -87.30573 8326 ft 92 kts 254°
2026-05-08 20:22 39.23078 -87.31093 8326 ft 92 kts 254°
2026-05-08 20:23 39.22808 -87.32136 8322 ft 91 kts 254°
2026-05-08 20:23 39.22605 -87.32914 8323 ft 92 kts 254°
2026-05-08 20:23 39.22401 -87.33697 8323 ft 92 kts 253°
2026-05-08 20:23 39.22201 -87.34468 8320 ft 92 kts 253°
2026-05-08 20:24 39.21996 -87.35259 8319 ft 92 kts 254°
2026-05-08 20:24 39.21797 -87.36028 8324 ft 91 kts 254°
2026-05-08 20:24 39.21594 -87.36808 8327 ft 92 kts 254°
2026-05-08 20:24 39.21390 -87.37597 8321 ft 94 kts 254°
2026-05-08 20:25 39.21185 -87.38397 8324 ft 94 kts 254°
2026-05-08 20:25 39.20979 -87.39197 8323 ft 94 kts 254°
2026-05-08 20:25 39.20775 -87.39990 8322 ft 93 kts 254°
2026-05-08 20:25 39.20573 -87.40776 8320 ft 92 kts 254°
2026-05-08 20:26 39.20371 -87.41559 8318 ft 92 kts 254°
2026-05-08 20:26 39.20171 -87.42341 8318 ft 92 kts 254°
2026-05-08 20:26 39.20036 -87.42873 8320 ft 92 kts 254°
2026-05-08 20:26 39.19840 -87.43648 8317 ft 92 kts 254°
2026-05-08 20:27 39.19645 -87.44431 8320 ft 92 kts 254°
2026-05-08 20:27 39.19448 -87.45228 8317 ft 92 kts 254°
2026-05-08 20:27 39.19258 -87.46001 8319 ft 92 kts 254°
2026-05-08 20:27 39.19063 -87.46785 8320 ft 92 kts 254°
2026-05-08 20:28 39.18867 -87.47574 8319 ft 93 kts 254°
2026-05-08 20:28 39.18669 -87.48366 8320 ft 92 kts 254°
2026-05-08 20:28 39.18468 -87.49151 8321 ft 92 kts 254°
2026-05-08 20:28 39.18269 -87.49933 8316 ft 92 kts 254°
2026-05-08 20:29 39.18068 -87.50718 8319 ft 92 kts 254°
2026-05-08 20:29 39.17868 -87.51503 8317 ft 92 kts 254°
2026-05-08 20:29 39.17667 -87.52286 8314 ft 92 kts 254°
2026-05-08 20:29 39.17469 -87.53065 8316 ft 91 kts 254°
2026-05-08 20:30 39.17273 -87.53846 8317 ft 92 kts 254°
2026-05-08 20:30 39.17077 -87.54631 8319 ft 92 kts 254°
2026-05-08 20:30 39.16879 -87.55419 8319 ft 93 kts 254°
2026-05-08 20:30 39.16680 -87.56209 8320 ft 93 kts 254°
2026-05-08 20:31 39.16484 -87.57001 8320 ft 93 kts 254°
2026-05-08 20:31 39.16287 -87.57793 8318 ft 93 kts 254°
2026-05-08 20:31 39.16088 -87.58587 8317 ft 93 kts 254°
2026-05-08 20:31 39.15887 -87.59372 8315 ft 92 kts 254°
2026-05-08 20:32 39.15690 -87.60143 8311 ft 91 kts 254°
2026-05-08 20:32 39.15493 -87.60922 8313 ft 92 kts 254°
2026-05-08 20:32 39.15295 -87.61704 8311 ft 92 kts 254°
2026-05-08 20:32 39.15096 -87.62489 8316 ft 92 kts 254°
2026-05-08 20:33 39.14897 -87.63270 8314 ft 92 kts 254°
2026-05-08 20:33 39.14697 -87.64050 8313 ft 92 kts 254°
2026-05-08 20:33 39.14494 -87.64829 8315 ft 92 kts 254°
2026-05-08 20:33 39.14293 -87.65612 8316 ft 92 kts 254°
2026-05-08 20:34 39.14091 -87.66392 8317 ft 92 kts 254°
2026-05-08 20:34 39.13888 -87.67166 8314 ft 91 kts 254°
2026-05-08 20:34 39.13489 -87.68712 8311 ft 91 kts 254°
2026-05-08 20:35 39.13289 -87.69485 8313 ft 91 kts 254°
2026-05-08 20:35 39.13083 -87.70260 8311 ft 92 kts 254°
2026-05-08 20:35 39.12875 -87.71037 8312 ft 92 kts 254°
2026-05-08 20:35 39.12666 -87.71815 8316 ft 92 kts 254°
2026-05-08 20:36 39.12459 -87.72590 8312 ft 92 kts 254°
2026-05-08 20:36 39.12251 -87.73368 8311 ft 92 kts 254°
2026-05-08 20:36 39.12043 -87.74142 8314 ft 91 kts 254°
2026-05-08 20:36 39.11842 -87.74917 8314 ft 91 kts 254°
2026-05-08 20:37 39.11643 -87.75691 8313 ft 91 kts 254°
2026-05-08 20:37 39.11443 -87.76464 8313 ft 91 kts 254°
2026-05-08 20:37 39.11244 -87.77238 8312 ft 91 kts 254°
2026-05-08 20:37 39.11046 -87.78001 8309 ft 91 kts 254°
2026-05-08 20:38 39.10843 -87.78786 8308 ft 91 kts 254°
2026-05-08 20:38 39.10637 -87.79558 8310 ft 91 kts 254°
2026-05-08 20:38 39.10432 -87.80326 8311 ft 93 kts 254°
2026-05-08 20:38 39.10226 -87.81114 8313 ft 93 kts 254°
2026-05-08 20:39 39.10022 -87.81903 8314 ft 93 kts 254°
2026-05-08 20:39 39.09817 -87.82689 8312 ft 92 kts 254°
2026-05-08 20:39 39.09614 -87.83473 8314 ft 93 kts 254°
2026-05-08 20:39 39.09409 -87.84271 8317 ft 95 kts 254°
2026-05-08 20:40 39.09202 -87.85077 8316 ft 95 kts 254°
2026-05-08 20:40 39.08991 -87.85884 8319 ft 95 kts 254°
2026-05-08 20:40 39.08781 -87.86685 8318 ft 94 kts 254°
2026-05-08 20:40 39.08574 -87.87480 8316 ft 93 kts 254°
2026-05-08 20:41 39.08370 -87.88268 8317 ft 93 kts 254°
2026-05-08 20:41 39.08167 -87.89051 8313 ft 92 kts 254°
2026-05-08 20:41 39.07964 -87.89830 8308 ft 92 kts 254°
2026-05-08 20:41 39.07762 -87.90609 8313 ft 92 kts 254°
2026-05-08 20:42 39.07560 -87.91388 8313 ft 92 kts 254°
2026-05-08 20:42 39.07357 -87.92162 8311 ft 91 kts 254°
2026-05-08 20:42 39.07157 -87.92929 8312 ft 90 kts 254°
2026-05-08 20:42 39.07108 -87.93709 8319 ft 95 kts 289°
2026-05-08 20:43 39.07628 -87.94315 8325 ft 104 kts 309°
2026-05-08 20:43 39.08200 -87.94893 8323 ft 105 kts 308°
2026-05-08 20:43 39.08773 -87.95471 8322 ft 105 kts 308°
2026-05-08 20:43 39.09351 -87.96055 8324 ft 106 kts 308°
2026-05-08 20:44 39.09932 -87.96641 8323 ft 106 kts 308°
2026-05-08 20:44 39.10511 -87.97231 8321 ft 106 kts 308°
2026-05-08 20:44 39.11087 -87.97818 8322 ft 106 kts 308°
2026-05-08 20:44 39.11661 -87.98401 8320 ft 105 kts 308°
2026-05-08 20:45 39.12241 -87.98982 8320 ft 106 kts 308°
2026-05-08 20:45 39.12814 -87.99555 8323 ft 106 kts 308°
2026-05-08 20:45 39.13397 -88.00137 8321 ft 106 kts 308°
2026-05-08 20:45 39.13979 -88.00717 8321 ft 106 kts 308°
2026-05-08 20:46 39.14559 -88.01296 8320 ft 105 kts 308°
2026-05-08 20:46 39.15140 -88.01874 8318 ft 105 kts 308°
2026-05-08 20:46 39.15720 -88.02451 8317 ft 105 kts 308°
2026-05-08 20:46 39.16299 -88.03031 8322 ft 105 kts 308°
2026-05-08 20:47 39.16881 -88.03612 8323 ft 107 kts 308°
2026-05-08 20:47 39.17475 -88.04204 8321 ft 109 kts 308°
2026-05-08 20:47 39.18075 -88.04802 8321 ft 109 kts 308°
2026-05-08 20:47 39.18675 -88.05399 8320 ft 108 kts 308°
2026-05-08 20:48 39.19270 -88.05986 8318 ft 107 kts 308°
2026-05-08 20:48 39.19860 -88.06566 8321 ft 106 kts 308°
2026-05-08 20:48 39.20453 -88.07145 8322 ft 107 kts 308°
2026-05-08 20:48 39.21051 -88.07730 8321 ft 108 kts 308°
2026-05-08 20:49 39.21649 -88.08317 8323 ft 108 kts 308°
2026-05-08 20:49 39.22244 -88.08894 8320 ft 106 kts 308°
2026-05-08 20:49 39.22832 -88.09467 8321 ft 105 kts 308°
2026-05-08 20:49 39.23417 -88.10037 8317 ft 105 kts 308°
2026-05-08 20:50 39.23999 -88.10600 8317 ft 104 kts 308°
2026-05-08 20:50 39.24578 -88.11154 8316 ft 103 kts 308°
2026-05-08 20:50 39.25156 -88.11704 8317 ft 103 kts 308°
2026-05-08 20:50 39.25733 -88.12253 8318 ft 103 kts 308°
2026-05-08 20:51 39.26312 -88.12802 8318 ft 103 kts 308°
2026-05-08 20:51 39.26892 -88.13348 8322 ft 104 kts 308°
2026-05-08 20:51 39.27481 -88.13895 8320 ft 105 kts 310°
2026-05-08 20:51 39.28299 -88.14029 8324 ft 137 kts 357°
2026-05-08 20:52 39.29239 -88.13726 8322 ft 140 kts 358°
2026-05-08 20:52 39.30182 -88.13424 8318 ft 140 kts 358°
2026-05-08 20:52 39.31140 -88.13117 8224 ft 147 kts 359°
2026-05-08 20:52 39.32140 -88.12806 8128 ft 149 kts 359°
2026-05-08 20:53 39.33150 -88.12493 8035 ft 149 kts 359°
2026-05-08 20:53 39.34162 -88.12186 7933 ft 149 kts 359°
2026-05-08 20:53 39.35173 -88.11887 7841 ft 150 kts 359°
2026-05-08 20:53 39.36193 -88.11590 7741 ft 151 kts 359°
2026-05-08 20:54 39.37217 -88.11295 7644 ft 151 kts 358°
2026-05-08 20:54 39.38244 -88.10990 7542 ft 151 kts 359°
2026-05-08 20:54 39.39268 -88.10686 7447 ft 151 kts 359°
2026-05-08 20:54 39.40288 -88.10387 7350 ft 150 kts 359°
2026-05-08 20:55 39.41309 -88.10096 7254 ft 151 kts 358°
2026-05-08 20:55 39.42332 -88.09801 7157 ft 151 kts 359°
2026-05-08 20:55 39.43359 -88.09507 7055 ft 151 kts 359°
2026-05-08 20:55 39.44385 -88.09251 6959 ft 146 kts 352°
2026-05-08 20:56 39.45391 -88.09131 6853 ft 145 kts 351°
2026-05-08 20:56 39.46395 -88.09013 6760 ft 145 kts 350°
2026-05-08 20:56 39.47392 -88.08883 6666 ft 144 kts 351°
2026-05-08 20:56 39.48393 -88.08755 6572 ft 144 kts 351°
2026-05-08 20:57 39.49391 -88.08635 6474 ft 144 kts 351°
2026-05-08 20:57 39.50392 -88.08524 6378 ft 144 kts 350°
2026-05-08 20:57 39.51390 -88.08413 6317 ft 142 kts 350°
2026-05-08 20:57 39.52363 -88.08289 6315 ft 139 kts 350°
2026-05-08 20:58 39.53323 -88.08152 6312 ft 138 kts 350°
2026-05-08 20:58 39.54279 -88.08020 6310 ft 138 kts 350°
2026-05-08 20:58 39.55238 -88.07886 6316 ft 139 kts 351°
2026-05-08 20:58 39.56182 -88.07759 6307 ft 137 kts 350°
2026-05-08 20:59 39.57141 -88.07622 6311 ft 136 kts 351°
2026-05-08 20:59 39.58065 -88.07488 6309 ft 134 kts 351°
2026-05-08 20:59 39.58992 -88.07355 6307 ft 134 kts 350°
2026-05-08 20:59 39.59921 -88.07207 6310 ft 134 kts 350°
2026-05-08 21:00 39.60849 -88.07060 6309 ft 134 kts 350°
2026-05-08 21:00 39.61774 -88.06911 6309 ft 134 kts 350°
2026-05-08 21:00 39.62693 -88.06749 6306 ft 134 kts 350°
2026-05-08 21:00 39.63616 -88.06584 6303 ft 134 kts 350°
2026-05-08 21:01 39.64546 -88.06414 6310 ft 136 kts 350°
2026-05-08 21:01 39.65483 -88.06230 6315 ft 137 kts 350°
2026-05-08 21:01 39.66421 -88.06043 6301 ft 136 kts 350°
2026-05-08 21:01 39.67350 -88.05865 6302 ft 134 kts 350°
2026-05-08 21:02 39.68267 -88.05691 6307 ft 132 kts 350°
2026-05-08 21:02 39.69180 -88.05518 6304 ft 133 kts 350°
2026-05-08 21:02 39.70100 -88.05333 6305 ft 134 kts 350°
2026-05-08 21:02 39.71019 -88.05144 6310 ft 134 kts 351°
2026-05-08 21:03 39.71930 -88.04961 6321 ft 134 kts 350°
2026-05-08 21:03 39.72849 -88.04778 6320 ft 133 kts 351°
2026-05-08 21:03 39.73773 -88.04602 6324 ft 132 kts 350°
2026-05-08 21:03 39.74678 -88.04439 6314 ft 133 kts 350°
2026-05-08 21:04 39.75596 -88.04272 6313 ft 133 kts 350°
2026-05-08 21:04 39.76518 -88.04106 6317 ft 134 kts 350°
2026-05-08 21:04 39.77448 -88.03941 6318 ft 135 kts 351°
2026-05-08 21:04 39.78373 -88.03778 6325 ft 134 kts 350°
2026-05-08 21:05 39.79294 -88.03623 6318 ft 133 kts 351°
2026-05-08 21:05 39.80213 -88.03478 6322 ft 133 kts 350°
2026-05-08 21:05 39.81128 -88.03326 6314 ft 132 kts 350°
2026-05-08 21:05 39.82038 -88.03183 6302 ft 131 kts 350°
2026-05-08 21:06 39.82945 -88.03031 6312 ft 131 kts 351°
2026-05-08 21:06 39.83846 -88.02881 6307 ft 130 kts 350°
2026-05-08 21:06 39.84743 -88.02731 6306 ft 130 kts 350°
2026-05-08 21:06 39.85635 -88.02580 6306 ft 129 kts 351°
2026-05-08 21:07 39.86527 -88.02445 6304 ft 129 kts 350°
2026-05-08 21:07 39.87421 -88.02311 6306 ft 130 kts 350°
2026-05-08 21:07 39.88320 -88.02177 6310 ft 130 kts 350°
2026-05-08 21:07 39.89216 -88.02044 6306 ft 129 kts 350°
2026-05-08 21:08 39.90109 -88.01906 6301 ft 129 kts 350°
2026-05-08 21:08 39.90996 -88.01766 6304 ft 128 kts 350°
2026-05-08 21:08 39.91881 -88.01626 6311 ft 128 kts 350°
2026-05-08 21:08 39.92774 -88.01479 6310 ft 130 kts 350°
2026-05-08 21:09 39.93669 -88.01335 6307 ft 130 kts 350°
2026-05-08 21:09 39.94567 -88.01191 6306 ft 130 kts 350°
2026-05-08 21:09 39.95465 -88.01056 6311 ft 129 kts 350°
2026-05-08 21:09 39.96360 -88.00936 6309 ft 129 kts 350°
2026-05-08 21:10 39.97257 -88.00815 6306 ft 130 kts 350°
2026-05-08 21:10 39.98155 -88.00693 6310 ft 130 kts 350°
2026-05-08 21:10 39.99061 -88.00566 6310 ft 131 kts 350°
2026-05-08 21:10 39.99967 -88.00446 6305 ft 130 kts 350°
2026-05-08 21:11 40.00871 -88.00332 6302 ft 131 kts 350°
2026-05-08 21:11 40.01775 -88.00208 6305 ft 130 kts 351°
2026-05-08 21:11 40.02675 -88.00096 6305 ft 130 kts 350°
2026-05-08 21:11 40.03575 -87.99988 6306 ft 129 kts 350°
2026-05-08 21:12 40.04473 -87.99892 6307 ft 130 kts 350°
2026-05-08 21:12 40.05373 -87.99794 6305 ft 130 kts 350°
2026-05-08 21:12 40.06262 -87.99698 6307 ft 130 kts 350°
2026-05-08 21:12 40.07164 -87.99601 6305 ft 130 kts 350°
2026-05-08 21:13 40.08063 -87.99506 6304 ft 129 kts 350°
2026-05-08 21:13 40.08958 -87.99426 6306 ft 128 kts 350°
2026-05-08 21:13 40.09846 -87.99349 6304 ft 127 kts 350°
2026-05-08 21:13 40.10730 -87.99273 6303 ft 127 kts 350°
2026-05-08 21:14 40.11613 -87.99198 6304 ft 128 kts 350°
2026-05-08 21:14 40.12212 -87.99147 6302 ft 127 kts 351°
2026-05-08 21:14 40.13082 -87.99077 6300 ft 127 kts 350°
2026-05-08 21:14 40.13962 -87.99006 6297 ft 126 kts 351°
2026-05-08 21:15 40.14838 -87.98948 6299 ft 126 kts 350°
2026-05-08 21:15 40.15714 -87.98893 6300 ft 126 kts 350°
2026-05-08 21:15 40.16591 -87.98839 6298 ft 126 kts 350°
2026-05-08 21:15 40.17470 -87.98780 6301 ft 126 kts 350°
2026-05-08 21:16 40.18347 -87.98722 6299 ft 126 kts 350°
2026-05-08 21:16 40.19224 -87.98664 6302 ft 126 kts 350°
2026-05-08 21:16 40.20099 -87.98607 6299 ft 126 kts 350°
2026-05-08 21:16 40.20974 -87.98558 6299 ft 126 kts 350°
2026-05-08 21:17 40.21849 -87.98518 6300 ft 126 kts 350°
2026-05-08 21:17 40.22730 -87.98481 6299 ft 127 kts 350°
2026-05-08 21:17 40.23609 -87.98441 6296 ft 127 kts 350°
2026-05-08 21:17 40.24493 -87.98396 6299 ft 126 kts 350°
2026-05-08 21:18 40.25370 -87.98355 6298 ft 126 kts 350°
2026-05-08 21:18 40.26250 -87.98321 6298 ft 126 kts 350°
2026-05-08 21:18 40.27129 -87.98287 6297 ft 127 kts 350°
2026-05-08 21:18 40.28012 -87.98251 6297 ft 127 kts 350°
2026-05-08 21:19 40.28891 -87.98217 6296 ft 126 kts 350°
2026-05-08 21:19 40.29772 -87.98186 6296 ft 126 kts 350°
2026-05-08 21:19 40.30654 -87.98149 6297 ft 127 kts 350°
2026-05-08 21:19 40.31537 -87.98111 6297 ft 127 kts 351°
2026-05-08 21:20 40.32420 -87.98084 6295 ft 127 kts 350°
2026-05-08 21:20 40.33302 -87.98064 6298 ft 127 kts 350°
2026-05-08 21:20 40.34187 -87.98041 6297 ft 127 kts 350°
2026-05-08 21:20 40.35060 -87.98014 6299 ft 127 kts 350°
2026-05-08 21:21 40.35937 -87.97990 6296 ft 126 kts 350°
2026-05-08 21:21 40.36814 -87.97970 6299 ft 126 kts 350°
2026-05-08 21:21 40.37694 -87.97955 6298 ft 127 kts 350°
2026-05-08 21:21 40.38577 -87.97944 6298 ft 127 kts 350°
2026-05-08 21:22 40.39462 -87.97929 6299 ft 127 kts 350°
2026-05-08 21:22 40.40349 -87.97915 6302 ft 128 kts 350°
2026-05-08 21:22 40.41238 -87.97906 6298 ft 128 kts 350°
2026-05-08 21:22 40.42128 -87.97902 6300 ft 128 kts 350°
2026-05-08 21:23 40.43020 -87.97900 6300 ft 128 kts 350°
2026-05-08 21:23 40.43913 -87.97890 6301 ft 129 kts 350°
2026-05-08 21:23 40.44805 -87.97879 6300 ft 128 kts 350°
2026-05-08 21:23 40.45692 -87.97876 6299 ft 127 kts 350°
2026-05-08 21:24 40.46576 -87.97875 6299 ft 127 kts 350°
2026-05-08 21:24 40.47465 -87.97875 6299 ft 128 kts 350°
2026-05-08 21:24 40.48351 -87.97876 6299 ft 127 kts 350°
2026-05-08 21:24 40.49232 -87.97878 6299 ft 126 kts 351°
2026-05-08 21:25 40.50107 -87.97885 6297 ft 126 kts 350°
2026-05-08 21:25 40.50983 -87.97892 6298 ft 126 kts 350°
2026-05-08 21:25 40.51861 -87.97898 6304 ft 127 kts 350°
2026-05-08 21:25 40.52743 -87.97900 6300 ft 126 kts 350°
2026-05-08 21:26 40.53622 -87.97903 6299 ft 126 kts 350°
2026-05-08 21:26 40.54501 -87.97914 6297 ft 126 kts 350°
2026-05-08 21:26 40.55384 -87.97925 6299 ft 127 kts 350°
2026-05-08 21:26 40.56271 -87.97930 6293 ft 128 kts 350°
2026-05-08 21:27 40.57159 -87.97935 6291 ft 127 kts 350°
2026-05-08 21:27 40.58042 -87.97941 6290 ft 126 kts 350°
2026-05-08 21:27 40.58921 -87.97946 6291 ft 126 kts 350°
2026-05-08 21:27 40.59799 -87.97952 6291 ft 126 kts 350°
2026-05-08 21:28 40.60672 -87.97957 6292 ft 125 kts 350°
2026-05-08 21:28 40.61545 -87.97963 6297 ft 126 kts 350°
2026-05-08 21:28 40.62427 -87.97969 6293 ft 127 kts 350°
2026-05-08 21:28 40.63308 -87.97976 6291 ft 126 kts 350°
2026-05-08 21:29 40.64185 -87.97983 6297 ft 126 kts 350°
2026-05-08 21:29 40.65067 -87.97991 6292 ft 127 kts 350°
2026-05-08 21:29 40.65946 -87.97996 6292 ft 128 kts 350°
2026-05-08 21:29 40.66831 -87.98001 6291 ft 126 kts 350°
2026-05-08 21:30 40.67710 -87.98010 6288 ft 127 kts 350°
2026-05-08 21:30 40.68593 -87.98020 6291 ft 127 kts 350°
2026-05-08 21:30 40.69478 -87.98023 6288 ft 127 kts 350°
2026-05-08 21:30 40.70364 -87.98032 6289 ft 127 kts 350°
2026-05-08 21:31 40.71249 -87.98047 6283 ft 128 kts 350°
2026-05-08 21:31 40.72138 -87.98054 6285 ft 127 kts 350°
2026-05-08 21:31 40.73019 -87.98064 6281 ft 126 kts 351°
2026-05-08 21:31 40.73896 -87.98082 6279 ft 126 kts 350°
2026-05-08 21:32 40.74770 -87.98100 6279 ft 126 kts 350°
2026-05-08 21:32 40.75647 -87.98119 6280 ft 126 kts 350°
2026-05-08 21:32 40.76521 -87.98141 6282 ft 125 kts 350°
2026-05-08 21:32 40.77382 -87.98163 6280 ft 125 kts 350°
2026-05-08 21:33 40.78264 -87.98190 6282 ft 126 kts 350°
2026-05-08 21:33 40.79140 -87.98221 6284 ft 126 kts 350°
2026-05-08 21:33 40.80010 -87.98249 6281 ft 126 kts 350°
2026-05-08 21:33 40.80883 -87.98273 6277 ft 125 kts 350°
2026-05-08 21:34 40.81748 -87.98304 6276 ft 124 kts 350°
2026-05-08 21:34 40.82613 -87.98335 6275 ft 125 kts 350°
2026-05-08 21:34 40.83477 -87.98361 6275 ft 124 kts 350°
2026-05-08 21:34 40.84339 -87.98386 6276 ft 124 kts 350°
2026-05-08 21:35 40.85206 -87.98413 6278 ft 124 kts 350°
2026-05-08 21:35 40.86070 -87.98446 6279 ft 124 kts 350°
2026-05-08 21:35 40.86934 -87.98477 6282 ft 125 kts 351°
2026-05-08 21:35 40.87810 -87.98515 6276 ft 127 kts 350°
2026-05-08 21:36 40.88691 -87.98554 6272 ft 126 kts 351°
2026-05-08 21:36 40.89561 -87.98593 6271 ft 125 kts 350°
2026-05-08 21:36 40.90428 -87.98628 6274 ft 124 kts 350°
2026-05-08 21:36 40.91292 -87.98666 6271 ft 124 kts 350°
2026-05-08 21:37 40.92159 -87.98706 6290 ft 126 kts 350°
2026-05-08 21:37 40.93032 -87.98753 6311 ft 128 kts 350°
2026-05-08 21:37 40.93937 -87.98797 6264 ft 128 kts 350°
2026-05-08 21:37 40.94860 -87.98848 6287 ft 140 kts 350°
2026-05-08 21:38 40.95816 -87.98911 6269 ft 135 kts 350°
2026-05-08 21:38 40.96739 -87.98971 6282 ft 139 kts 350°
2026-05-08 21:38 40.97717 -87.99040 6260 ft 133 kts 351°
2026-05-08 21:38 40.98609 -87.99101 6266 ft 129 kts 349°
2026-05-08 21:39 40.99546 -87.99167 6276 ft 140 kts 350°
2026-05-08 21:39 41.00532 -87.99241 6276 ft 143 kts 351°
2026-05-08 21:39 41.01510 -87.99311 6260 ft 134 kts 350°
2026-05-08 21:39 41.02416 -87.99374 6258 ft 128 kts 351°
2026-05-08 21:40 41.03295 -87.99436 6259 ft 125 kts 350°
2026-05-08 21:40 41.04158 -87.99494 6259 ft 124 kts 351°
2026-05-08 21:40 41.05013 -87.99550 6260 ft 123 kts 350°
2026-05-08 21:41 41.06731 -87.99670 6263 ft 123 kts 350°
2026-05-08 21:41 41.07588 -87.99730 6258 ft 123 kts 350°
2026-05-08 21:41 41.08442 -87.99793 6259 ft 122 kts 350°
2026-05-08 21:41 41.09300 -87.99858 6256 ft 124 kts 350°
2026-05-08 21:42 41.10160 -87.99925 6256 ft 122 kts 350°
2026-05-08 21:42 41.11011 -87.99986 6255 ft 122 kts 351°
2026-05-08 21:42 41.11861 -88.00055 6258 ft 123 kts 350°
2026-05-08 21:42 41.12719 -88.00127 6262 ft 124 kts 350°
2026-05-08 21:43 41.13578 -88.00198 6262 ft 124 kts 349°
2026-05-08 21:43 41.14443 -88.00264 6261 ft 125 kts 349°
2026-05-08 21:43 41.15304 -88.00332 6256 ft 123 kts 349°
2026-05-08 21:43 41.16162 -88.00393 6257 ft 124 kts 350°
2026-05-08 21:44 41.17021 -88.00461 6258 ft 124 kts 351°
2026-05-08 21:44 41.17885 -88.00532 6257 ft 125 kts 349°
2026-05-08 21:44 41.18746 -88.00599 6256 ft 123 kts 349°
2026-05-08 21:44 41.19606 -88.00673 6258 ft 124 kts 350°
2026-05-08 21:45 41.20453 -88.00743 6256 ft 124 kts 350°
2026-05-08 21:45 41.21312 -88.00816 6255 ft 123 kts 351°
2026-05-08 21:45 41.22169 -88.00881 6256 ft 123 kts 351°
2026-05-08 21:45 41.23031 -88.00955 6255 ft 125 kts 350°
2026-05-08 21:46 41.23903 -88.01034 6260 ft 125 kts 351°
2026-05-08 21:46 41.24772 -88.01111 6261 ft 125 kts 350°
2026-05-08 21:46 41.25637 -88.01190 6253 ft 124 kts 350°
2026-05-08 21:46 41.26497 -88.01268 6255 ft 124 kts 349°
2026-05-08 21:47 41.27356 -88.01354 6255 ft 124 kts 350°
2026-05-08 21:47 41.28216 -88.01443 6252 ft 125 kts 350°
2026-05-08 21:47 41.29083 -88.01530 6255 ft 124 kts 350°
2026-05-08 21:47 41.29949 -88.01617 6246 ft 126 kts 350°
2026-05-08 21:48 41.30821 -88.01707 6244 ft 125 kts 350°
2026-05-08 21:48 41.31688 -88.01797 6242 ft 125 kts 350°
2026-05-08 21:48 41.32553 -88.01884 6242 ft 125 kts 350°
2026-05-08 21:48 41.33419 -88.01975 6243 ft 125 kts 350°
2026-05-08 21:49 41.34286 -88.02064 6239 ft 125 kts 350°
2026-05-08 21:49 41.35151 -88.02152 6238 ft 124 kts 350°
2026-05-08 21:49 41.36014 -88.02244 6241 ft 124 kts 350°
2026-05-08 21:49 41.36879 -88.02332 6240 ft 126 kts 350°
2026-05-08 21:50 41.37755 -88.02428 6240 ft 126 kts 350°
2026-05-08 21:50 41.38630 -88.02518 6242 ft 126 kts 350°
2026-05-08 21:50 41.39493 -88.02613 6239 ft 126 kts 350°
2026-05-08 21:50 41.40374 -88.02712 6240 ft 125 kts 350°
2026-05-08 21:51 41.41229 -88.02817 6238 ft 125 kts 349°
2026-05-08 21:51 41.42102 -88.02919 6239 ft 124 kts 350°
2026-05-08 21:51 41.42953 -88.03022 6238 ft 125 kts 350°
2026-05-08 21:51 41.43821 -88.03128 6239 ft 125 kts 350°
2026-05-08 21:52 41.44681 -88.03291 6234 ft 123 kts 333°
2026-05-08 21:52 41.45210 -88.04103 6227 ft 117 kts 294°
2026-05-08 21:52 41.45562 -88.05094 6240 ft 120 kts 294°
2026-05-08 21:52 41.45927 -88.06108 6237 ft 122 kts 294°
2026-05-08 21:53 41.46291 -88.07121 6245 ft 121 kts 294°
2026-05-08 21:53 41.46661 -88.08149 6234 ft 123 kts 294°
2026-05-08 21:53 41.47026 -88.09171 6231 ft 120 kts 294°
2026-05-08 21:53 41.47384 -88.10172 6227 ft 119 kts 294°
2026-05-08 21:54 41.47738 -88.11164 6227 ft 118 kts 294°
2026-05-08 21:54 41.48091 -88.12150 6222 ft 118 kts 294°
2026-05-08 21:54 41.48443 -88.13132 6225 ft 117 kts 294°
2026-05-08 21:54 41.48793 -88.14113 6224 ft 118 kts 294°
2026-05-08 21:55 41.49145 -88.15099 6226 ft 117 kts 294°
2026-05-08 21:55 41.49494 -88.16078 6226 ft 117 kts 294°
2026-05-08 21:55 41.49847 -88.17065 6223 ft 118 kts 294°
2026-05-08 21:56 41.50553 -88.19037 6229 ft 118 kts 294°
2026-05-08 21:56 41.50907 -88.20027 6222 ft 118 kts 295°
2026-05-08 21:56 41.51261 -88.21017 6224 ft 118 kts 294°
2026-05-08 21:56 41.51614 -88.22004 6225 ft 118 kts 294°
2026-05-08 21:57 41.51964 -88.22981 6227 ft 118 kts 294°
2026-05-08 21:57 41.52318 -88.23969 6226 ft 118 kts 294°
2026-05-08 21:57 41.52673 -88.24961 6227 ft 118 kts 294°
2026-05-08 21:57 41.53027 -88.25953 6226 ft 118 kts 294°
2026-05-08 21:58 41.53381 -88.26942 6222 ft 118 kts 294°
2026-05-08 21:58 41.53737 -88.27937 6227 ft 119 kts 294°
2026-05-08 21:58 41.54095 -88.28937 6227 ft 120 kts 294°
2026-05-08 21:58 41.54454 -88.29940 6228 ft 119 kts 294°
2026-05-08 21:59 41.54811 -88.30935 6227 ft 119 kts 294°
2026-05-08 21:59 41.55166 -88.31926 6223 ft 118 kts 294°
2026-05-08 21:59 41.55521 -88.32916 6227 ft 118 kts 294°
2026-05-08 21:59 41.55877 -88.33904 6226 ft 118 kts 294°
2026-05-08 22:00 41.56234 -88.34897 6225 ft 119 kts 294°
2026-05-08 22:00 41.56591 -88.35892 6228 ft 118 kts 294°
2026-05-08 22:00 41.56829 -88.36549 6223 ft 119 kts 294°
2026-05-08 22:00 41.57188 -88.37550 6224 ft 119 kts 294°
2026-05-08 22:01 41.57661 -88.38870 6227 ft 119 kts 294°
2026-05-08 22:01 41.58274 -88.39586 6239 ft 124 kts 337°
2026-05-08 22:01 41.59112 -88.39944 6241 ft 127 kts 338°
2026-05-08 22:01 41.59956 -88.40316 6225 ft 128 kts 338°
2026-05-08 22:02 41.60804 -88.40688 6228 ft 129 kts 338°
2026-05-08 22:02 41.61372 -88.40936 6226 ft 130 kts 339°
2026-05-08 22:02 41.62235 -88.41317 6217 ft 130 kts 339°
2026-05-08 22:02 41.63090 -88.41694 6219 ft 128 kts 338°
2026-05-08 22:03 41.63934 -88.42062 6219 ft 127 kts 339°
2026-05-08 22:03 41.64775 -88.42428 6223 ft 127 kts 339°
2026-05-08 22:03 41.65628 -88.42797 6221 ft 130 kts 339°
2026-05-08 22:03 41.66494 -88.43170 6216 ft 131 kts 338°
2026-05-08 22:04 41.67357 -88.43542 6209 ft 129 kts 339°
2026-05-08 22:04 41.68179 -88.43889 6202 ft 114 kts 339°
2026-05-08 22:04 41.68884 -88.44170 6197 ft 98 kts 338°
2026-05-08 22:04 41.69490 -88.44404 6202 ft 86 kts 338°
2026-05-08 22:05 41.69866 -88.44549 6201 ft 83 kts 338°
2026-05-08 22:05 41.70397 -88.44746 6195 ft 74 kts 339°
2026-05-08 22:05 41.70865 -88.44909 6174 ft 68 kts 337°
2026-05-08 22:05 41.71354 -88.45102 6196 ft 77 kts 346°
2026-05-08 22:06 41.72030 -88.45198 5804 ft 112 kts 350°
2026-05-08 22:06 41.72805 -88.45205 5536 ft 112 kts 17°
2026-05-08 22:06 41.73334 -88.44497 5335 ft 109 kts 64°
2026-05-08 22:06 41.73433 -88.43517 5096 ft 105 kts 89°
2026-05-08 22:07 41.73443 -88.42570 4885 ft 101 kts 92°
2026-05-08 22:07 41.73410 -88.41629 4661 ft 103 kts 94°
2026-05-08 22:07 41.73344 -88.40726 4562 ft 93 kts 98°
2026-05-08 22:07 41.73287 -88.39843 4317 ft 96 kts 81°
2026-05-08 22:08 41.73515 -88.39019 4132 ft 92 kts 50°
2026-05-08 22:08 41.74044 -88.38577 3944 ft 90 kts
2026-05-08 22:08 41.74598 -88.38523 3821 ft 77 kts 357°
2026-05-08 22:08 41.75114 -88.38467 3671 ft 74 kts 356°
2026-05-08 22:09 41.75602 -88.38497 3492 ft 70 kts 332°
2026-05-08 22:09 41.75982 -88.38794 3365 ft 60 kts 320°
2026-05-08 22:09 41.76325 -88.39147 3209 ft 59 kts 309°
2026-05-08 22:09 41.76608 -88.39534 3072 ft 59 kts 308°
2026-05-08 22:10 41.76854 -88.39971 2936 ft 58 kts 301°
2026-05-08 22:10 41.77001 -88.40455 2788 ft 53 kts 284°
2026-05-08 22:10 41.77065 -88.40965 2620 ft 63 kts 271°
2026-05-08 22:10 41.77056 -88.41578 2434 ft 70 kts 271°
2026-05-08 22:11 41.77069 -88.42197 2235 ft 62 kts 263°
2026-05-08 22:11 41.77049 -88.42703 2198 ft 42 kts 271°
2026-05-08 22:11 41.77060 -88.43156 1953 ft 60 kts 268°
2026-05-08 22:11 41.77058 -88.43838 1489 ft 81 kts 271°
2026-05-08 22:12 41.77065 -88.44601 1163 ft 86 kts 265°
2026-05-08 22:12 41.77064 -88.45407 860 ft 83 kts 266°
2026-05-08 22:12 41.77049 -88.46124 725 ft 70 kts 262°
2026-05-08 22:12 41.77038 -88.46675 708 ft 42 kts 267°
2026-05-08 22:13 41.77030 -88.46964 706 ft 28 kts 276°
2026-05-08 22:13 41.76966 -88.47072 706 ft 13 kts 179°
2026-05-08 22:13 41.76923 -88.46987 706 ft 20 kts 92°
2026-05-08 22:13 41.76912 -88.46878 703 ft 6 kts 142°
2026-05-08 22:14 41.76890 -88.46871 706 ft 0 kts 181°